Weather in Balyksa

Russia / Republic of Khakassia     53°25′01″N   89°08′20″E
temp.,
°C
wind,
m/s
gust,
m/s
humid.,
%
clouds,
%
prec.,
mm/h
press.,
hPa
HPBL,
m
26 february, fri
fri2601:00−22wsw31598100 0.6 10281352
04:00−23wsw3599100 0.3 1029211
07:00−24wsw31199100 0.5 10311193
10:00−25wsw51593100 0.3 10321553
13:00−24wsw101992100 0.7 10341816
16:00−23w71592100 0.4 10351516
19:00−25w41797100 0.8 10361461
22:00−26w2599100 0.3 1038266
27 february, sat
sat2701:00−26w3599100 0.6 1039236
04:00−27w24100100 0.2 1039124
07:00−27wsw23100100 0.4 1039103
10:00−25wsw3697100 0.3 1039452
13:00−21w41188100 0.5 10371222
16:00−20w41091100 0.3 10371289
19:00−23w2399100 0.5 103867
22:00−25w22100100 0.1 103923
28 february, sun
sun2801:00−26wnw2299100 0.3 103921
04:00−26wnw1299100 0.1 104020
07:00−26wnw1199100 0.1 104121
10:00−22wsw1296100 0.1 1040166
13:00−16w2586100 0.1 1037691
16:00−14w2681100 0.1 10341096
19:00−18nnw1193100 0.1 103420
22:00−18e1196100 0.0 103220
1 march, mon
mon101:00−17ene1197100 0.4 103023
04:00−15e1297100 0.5 102851
07:00−14e1297100 1.3 102553
10:00−12ese1295100 1.1 1021162
13:00−8ssw1395100 2.8 1017237
16:00−5wsw3895100 2.5 1015770
19:00−5wsw2597100 5.6 1014418
22:00−5wsw2697100 2.8 1014375
2 march, tue
tue201:00−6sw2497100 5.0 1013244
04:00−6wsw2397100 2.6 1012176
07:00−6sw21097100 5.6 1011771
10:00−4wsw61495100 2.8 10101387
13:00−5wsw81492100 4.7 10111377
16:00−5wsw61394100 1.6 10121304
19:00−6wsw41296100 3.3 10131261
22:00−8wsw3796100 1.3 1014451